Tracking 19286 objects as of 18-Nov-2018
HD Live streaming from Space Station
objects crossing your sky now

INSAT 4A

Track INSAT 4A now!
INSAT 4A is classified as:


NORAD ID: 28911
Int'l Code: 2005-049A
Perigee: 35,768.0 km
Apogee: 35,818.3 km
Inclination: 0.0 °
Period: 1,436.1 minutes
Semi major axis: 42164 km
RCS: 12.5892 m2 (large)
Launch date: December 21, 2005
Source: India (IND)
Launch site: FRENCH GUIANA (FRGUI)
aabbcc
Your satellite tracking list
Your tracking list is empty




NASA's NSSDC Master Catalog

Two Line Element Set (TLE):
1 28911U 05049A   18320.61471415 -.00000161 +00000-0 +00000-0 0  9991
2 28911 000.0429 273.8397 0005965 339.2906 106.8350 01.00273736017958
Source of the keplerian elements: AFSPC